Temperature
11 11 11 11 11 11 11 11 11 11 11 10 10 10 10 10 10 10 10 9 9 9 9 9 9 9 9 9 9 9 9 9 9 9 9 9 9 10 10 10 10 10 10
10 10 11 10 10 10 10 11 10 10 10 10 10 10 10 10 10 9 9 9 9 9 9 9 9 9 9 9 9 9 8 9 8 8 7 7 8 8 9 9 9 9 9
10 10 10 10 10 10 10 10 10 10 10 10 10 10 9 9 9 9 9 9 8 8 8 8 8 8 8 8 8 8 8 8 8 8 7 7 7 7 8 8 9 9 9
10 10 10 10 10 10 10 10 10 10 10 9 9 9 9 8 8 8 8 8 8 8 8 8 8 7 7 7 8 8 8 7 7 7 7 7 7 7 7 7 8 8 8
9 9 9 10 10 10 10 9 9 9 9 9 9 8 8 8 8 8 8 8 8 8 8 7 7 7 7 7 7 7 7 7 7 7 7 7 7 7 6 6 7 7 8
8 9 9 9 9 9 9 9 9 9 9 8 8 8 8 8 7 7 7 7 7 7 7 7 7 7 7 7 7 7 7 7 7 7 7 6 6 6 6 6 7 7 7
8 8 8 8 9 9 9 9 8 8 8 8 8 8 7 7 7 7 6 6 6 7 7 7 7 6 6 6 6 6 6 6 7 6 6 6 6 6 6 6 6 6 7
7 8 8 8 8 8 8 8 8 8 8 8 8 7 7 7 6 6 6 6 6 6 6 6 6 6 6 6 6 6 6 6 6 6 6 6 6 6 6 6 6 6 6
7 7 8 8 8 8 8 8 8 8 8 7 7 7 7 6 6 6 6 6 6 6 6 6 6 6 6 6 6 5 6 6 5 5 5 5 5 5 6 5 6 6 5
7 7 7 7 7 7 7 7 7 7 7 7 6 6 6 6 6 6 6 6 6 6 6 6 5 5 5 5 5 5 5 5 5 5 5 5 5 5 5 5 5 5 5
7 7 7 7 7 7 7 7 7 7 7 6 6 6 6 6 6 5 5 5 5 5 5 5 5 5 5 5 5 5 5 4 4 4 4 4 5 5 5 5 5 5 5
6 6 6 6 6 6 6 6 6 6 6 6 6 6 6 5 5 5 5 5 5 5 5 4 4 4 5 5 5 4 4 4 4 4 4 4 4 4 4 5 5 5 5
6 6 6 6 6 6 6 6 6 6 6 5 5 5 5 5 5 5 5 4 4 4 4 4 4 4 4 4 4 4 4 4 4 4 4 4 4 4 4 5 4 4 4
5 5 5 5 5 5 5 5 5 5 5 5 5 5 5 4 4 4 4 4 4 4 4 4 4 4 4 4 4 4 4 4 4 4 4 4 4 4 4 4 4 4 4
4 5 5 5 5 5 4 4 4 4 4 4 4 4 4 4 4 4 4 3 3 3 3 3 3 3 3 3 3 3 3 3 3 3 4 4 4 4 4 4 4 4 4
4 4 4 4 4 4 4 4 4 4 4 4 4 4 4 3 3 3 3 3 3 3 3 3 3 3 3 3 3 3 3 3 3 3 3 3 3 3 3 3 3 3 3
3 3 3 3 3 3 3 3 3 3 3 3 3 3 3 3 3 3 3 3 2 2 3 3 3 3 3 3 3 3 3 3 3 3 3 3 3 3 3 3 3 3 3
2 3 3 3 3 3 3 3 3 3 3 3 2 2 2 2 2 2 2 2 2 2 2 2 2 2 2 2 2 2 2 2 2 2 2 3 3 3 3 3 3 3 3
2 2 2 2 2 2 2 2 2 2 2 2 2 2 2 2 2 2 2 2 2 2 2 2 2 2 2 2 2 2 2 2 2 2 2 2 2 3 3 3 3 3 3
2 1 2 1 2 2 1 1 2 1 1 1 1 1 1 1 1 1 1 1 1 1 1 1 1 1 1 1 1 1 1 2 2 2 2 2 2 2 2 3 3 2 2
1 1 1 1 1 1 1 1 1 1 1 1 1 1 1 1 1 1 1 1 1 1 1 1 1 1 1 1 1 1 1 1 1 1 1 1 2 2 2 2 2 2 2
1 0 0 0 0 0 0 0 0 0 0 0 1 1 1 1 0 0 0 0 0 0 0 0 0 1 0 1 1 1 1 1 1 1 1 1 1 1 2 2 2 2 2
-0 -0 -0 -0 -0 -0 -0 -0 -0 -0 -0 0 0 0 0 0 0 -0 -0 -0 -0 -0 -1 -1 -0 -0 0 0 0 0 0 0 0 0 0 1 1 1 1 1 2 2 2
-1 -1 -1 -1 -1 -1 -1 -1 -1 -1 -1 -0 -0 -0 -0 -0 -0 -1 -1 -1 -1 -1 -1 -1 -1 -1 -0 -0 -0 0 0 0 0 0 0 0 1 1 1 1 1 1 1
-1 -1 -1 -1 -1 -1 -1 -1 -1 -1 -1 -1 -1 -1 -1 -1 -1 -1 -1 -1 -1 -2 -2 -1 -1 -1 -1 -1 -1 -0 -0 -0 -0 -0 0 0 0 0 0 1 1 1 1
-2 -2 -2 -2 -2 -2 -2 -2 -2 -2 -2 -1 -1 -1 -1 -2 -2 -2 -2 -2 -2 -2 -2 -1 -1 -1 -1 -1 -1 -1 -1 -0 -0 -0 -0 -0 -0 -0 -0 -0 -0 0 0
Wind_Speed
7 5 5 5 4 4 4 4 4 4 3 2 2 2 3 3 3 4 5 5 5 5 4 4 4 4 4 5 5 4 5 4 2 2 3 4 5 6 6 5 5 6 7
5 4 4 4 5 5 5 5 5 5 4 3 3 3 3 3 4 4 4 6 6 6 5 5 5 5 5 5 6 5 4 3 3 2 1 3 3 4 5 4 6 6 5
7 5 4 5 5 6 6 6 6 6 5 4 2 1 1 2 3 4 4 5 6 6 6 7 6 6 6 6 7 6 6 5 4 4 4 2 4 3 4 5 6 6 5
5 5 5 5 6 6 6 5 5 5 4 4 3 4 3 5 5 5 5 5 5 6 7 7 7 7 6 7 8 7 6 6 6 4 4 5 4 3 3 3 4 6 6
5 6 6 6 6 4 4 4 5 5 4 4 5 4 5 5 4 4 5 6 5 6 7 7 7 7 7 8 8 7 7 7 8 6 4 4 4 5 5 7 5 5 5
4 5 4 4 3 3 3 3 4 5 4 4 4 5 5 5 5 6 6 6 5 5 7 7 7 8 7 8 8 8 9 8 9 7 6 5 5 5 5 6 7 7 6
2 3 3 3 3 4 4 3 4 4 4 4 4 5 5 6 6 7 6 6 6 5 7 7 7 8 8 8 8 8 9 9 9 9 8 7 7 6 5 6 6 7 6
2 3 4 4 4 5 4 4 4 4 3 3 4 4 4 4 5 6 6 7 6 7 7 7 8 8 8 8 8 8 9 8 9 10 9 7 7 6 6 6 5 6 6
3 4 4 4 4 4 4 4 4 3 3 3 3 4 4 4 5 6 6 6 6 7 7 7 8 8 8 9 8 8 9 8 9 9 9 9 7 6 6 6 6 6 8
4 4 4 4 4 4 3 3 3 3 3 3 3 4 4 5 5 5 6 7 7 7 7 7 8 8 8 8 8 8 8 9 8 7 8 9 7 6 6 6 6 6 7
5 4 4 4 3 2 2 3 3 3 3 3 3 4 5 5 5 5 7 7 7 7 7 7 7 7 7 8 8 8 8 9 9 8 9 10 8 7 6 6 6 6 6
5 4 4 4 3 3 3 3 3 3 4 4 4 4 5 5 5 6 7 7 7 7 6 6 6 7 7 7 8 9 8 9 9 9 9 9 7 8 6 6 7 6 6
4 4 3 4 4 4 3 3 4 4 4 4 4 4 5 5 6 7 7 7 6 6 6 6 6 7 7 7 7 8 8 7 8 8 9 9 8 8 7 7 7 6 6
4 4 4 4 4 4 4 4 5 4 4 4 4 4 5 6 6 7 7 6 6 6 6 6 6 6 6 6 6 6 6 6 7 8 8 8 8 9 8 7 7 6 6
4 4 4 4 4 5 5 4 5 5 4 4 5 5 6 6 6 6 6 6 6 6 6 5 5 5 4 4 4 4 5 5 6 6 6 7 9 11 9 7 6 6 6
5 5 4 4 4 5 5 5 5 5 5 5 5 6 5 6 6 5 6 6 5 5 5 5 5 5 5 6 7 6 4 5 5 6 5 5 7 7 8 9 9 8 8
5 5 5 5 5 5 5 5 6 5 5 5 5 5 5 6 6 6 5 6 6 5 5 5 4 5 6 8 8 7 4 4 4 5 4 4 4 4 4 5 6 8 10
4 5 5 5 5 4 5 5 5 4 4 5 5 5 5 6 6 5 5 6 5 5 5 5 5 5 6 8 8 7 4 4 4 4 4 4 3 4 3 3 3 4 5
4 4 4 4 4 5 5 5 5 5 5 5 6 6 6 6 6 6 6 5 4 5 4 4 4 5 7 8 7 6 3 3 4 3 3 3 3 4 4 3 3 3 3
3 4 4 4 4 5 5 5 5 5 6 7 7 6 6 6 6 6 6 5 4 4 4 4 4 5 5 7 6 5 2 3 3 3 3 4 4 4 4 3 3 4 3
3 3 4 4 4 5 4 5 6 6 7 7 6 6 6 6 5 5 4 4 4 4 4 4 4 4 5 6 6 5 2 2 2 2 3 3 4 4 3 3 3 4 2
4 4 4 5 5 5 4 5 7 7 6 6 6 6 6 5 5 4 4 4 3 3 4 4 5 4 4 5 5 5 4 3 2 2 2 2 3 4 4 2 1 2 1
4 4 4 6 6 5 4 6 8 7 6 6 6 6 6 5 4 4 4 4 3 2 3 3 4 5 4 4 5 4 4 4 2 2 2 2 2 3 2 2 1 1 1
5 5 5 6 7 7 6 6 7 6 5 6 6 5 5 5 4 4 3 3 3 3 3 3 3 4 4 3 2 2 2 1 1 1 1 2 2 2 2 2 2 1 2
5 4 5 6 7 7 7 7 7 6 5 6 5 5 4 4 4 4 3 3 3 3 3 3 3 3 4 4 5 3 2 1 1 0 0 1 1 1 1 1 1 2 2
5 5 5 6 7 7 7 7 6 5 5 5 5 4 4 4 3 3 4 6 5 7 7 6 5 3 4 5 5 4 3 3 1 1 1 1 1 1 1 1 1 2 2
Wind_Direction
251 237 218 209 200 200 204 209 215 224 192 187 196 217 243 248 247 239 238 239 241 239 229 240 239 234 236 238 238 240 235 235 228 264 286 278 256 248 243 242 240 242 240
245 229 216 206 204 207 211 209 220 225 207 202 202 207 227 244 245 245 246 240 240 238 238 230 236 235 238 240 237 232 233 238 211 208 270 287 288 255 243 243 240 241 237
220 217 212 216 210 213 214 216 224 226 217 205 200 237 270 280 266 260 254 245 241 239 236 234 234 235 230 238 236 227 225 235 227 208 202 225 248 284 250 238 242 241 243
215 213 213 218 218 222 221 219 228 226 218 200 200 215 237 251 257 259 260 263 249 245 242 238 237 238 236 236 237 232 227 223 230 225 224 230 229 249 277 261 244 246 249
219 217 218 221 231 225 223 226 231 229 219 213 207 217 241 252 265 268 270 270 261 250 246 241 238 240 240 239 239 235 229 226 228 226 225 238 246 241 251 274 274 261 248
238 233 232 229 245 244 229 229 226 229 223 221 217 217 235 252 266 270 272 274 271 260 251 244 239 241 241 240 239 235 232 232 230 231 225 225 229 233 237 258 269 272 269
243 248 246 244 251 248 237 231 224 237 235 228 227 226 233 238 246 257 260 267 270 267 259 255 246 245 244 243 239 236 236 232 230 232 233 230 236 234 237 251 266 274 279
275 264 258 255 256 252 244 237 236 245 247 240 245 244 239 244 252 256 259 259 261 262 262 258 252 248 245 245 240 240 238 237 234 237 235 236 239 235 233 237 248 273 280
281 278 279 268 256 250 245 237 236 254 262 256 258 263 255 253 260 266 266 265 263 266 261 257 257 254 247 242 239 241 240 238 236 235 235 237 239 236 235 233 229 239 265
303 298 295 287 270 251 245 254 245 247 260 262 263 281 273 267 267 272 273 272 269 267 264 262 259 258 254 244 241 243 241 238 240 235 234 238 240 235 233 233 236 236 244
300 299 301 298 299 303 280 273 267 261 274 277 278 282 283 282 282 277 273 273 275 271 266 264 262 259 258 247 240 243 242 240 242 242 238 239 235 235 235 234 235 240 239
307 302 302 316 326 314 307 298 288 277 275 277 279 279 282 289 291 285 283 282 281 276 271 270 270 265 263 251 244 246 244 241 242 245 240 238 234 231 236 234 234 237 233
312 313 314 317 319 316 313 310 298 288 285 287 283 285 291 295 295 292 291 289 286 285 284 275 272 271 268 263 253 244 241 241 240 241 238 235 231 234 235 233 231 235 239
310 315 314 317 319 317 316 311 308 305 303 300 294 288 289 289 292 292 294 292 287 284 284 281 273 270 269 271 265 248 242 244 248 246 240 233 230 232 232 232 230 229 233
315 310 310 314 321 320 318 315 313 314 312 307 303 295 294 293 294 295 296 295 293 293 288 288 289 283 278 273 266 259 249 247 255 255 248 238 236 238 236 233 228 224 225
301 305 308 310 313 313 313 315 314 314 315 302 295 297 305 310 303 298 302 304 303 298 298 294 290 289 287 290 290 282 268 259 256 261 260 256 249 244 242 243 243 234 224
298 306 305 300 303 305 307 308 308 315 314 306 305 311 315 314 307 305 312 308 303 300 302 297 290 287 288 294 293 288 286 274 259 258 258 269 259 247 230 246 255 246 240
305 311 311 310 313 313 316 316 319 319 315 313 313 316 315 310 309 313 309 302 297 298 295 292 290 288 289 294 294 294 288 279 273 262 249 246 260 246 232 232 244 244 245
300 303 306 308 317 322 325 329 326 325 322 316 314 310 305 302 305 306 302 301 299 295 285 278 279 281 286 291 293 298 285 282 282 275 267 252 254 257 248 234 240 252 266
316 319 326 331 333 329 332 333 325 322 314 311 310 308 304 301 302 303 305 306 301 294 287 282 278 275 280 291 296 302 278 283 291 297 287 277 274 277 261 224 213 228 239
325 330 334 333 324 321 330 326 317 309 306 308 308 307 307 304 299 300 302 304 304 307 306 299 296 288 284 292 288 290 268 254 270 277 282 285 300 304 291 267 229 219 215
333 334 334 329 323 323 329 320 308 305 309 310 309 308 307 307 309 303 305 306 306 310 310 310 311 303 297 295 287 284 280 279 255 262 270 283 308 323 326 301 238 204 189
324 327 327 325 324 325 323 310 307 311 312 312 310 311 314 316 315 309 308 311 307 300 301 308 309 308 303 296 299 300 291 297 290 270 282 307 322 334 339 342 359 117 142
321 326 329 326 321 323 321 308 309 313 311 310 311 313 316 320 326 324 316 312 310 305 304 305 300 305 310 297 288 293 307 310 322 347 8 11 15 10 4 7 51 88 121
314 318 316 311 311 317 318 317 317 319 315 311 310 312 313 313 322 326 321 308 300 291 295 293 286 293 302 297 294 289 283 278 237 294 65 57 37 42 38 40 51 75 96
313 315 313 311 311 315 316 317 317 316 311 310 310 310 314 319 323 329 336 338 327 326 321 314 309 305 302 313 320 321 317 319 338 71 114 107 85 69 80 80 66 80 92
Height
1443 1445 1447 1449 1450 1452 1454 1455 1456 1457 1458 1459 1459 1459 1459 1460 1460 1460 1460 1460 1460 1460 1460 1460 1460 1461 1461 1461 1462 1462 1462 1462 1463 1462 1461 1461 1461 1461 1462 1463 1464 1464 1465
1438 1440 1442 1444 1446 1448 1450 1451 1452 1453 1454 1455 1455 1455 1455 1455 1455 1455 1455 1455 1454 1454 1454 1454 1454 1455 1455 1456 1456 1457 1456 1457 1458 1458 1457 1455 1454 1454 1455 1456 1457 1458 1459
1434 1435 1437 1439 1441 1443 1445 1447 1448 1449 1449 1450 1451 1451 1451 1450 1450 1450 1449 1449 1449 1449 1449 1449 1449 1449 1450 1449 1450 1451 1451 1451 1452 1454 1455 1453 1449 1448 1448 1449 1450 1451 1452
1430 1432 1434 1435 1437 1439 1441 1442 1444 1444 1445 1446 1446 1446 1445 1444 1444 1444 1444 1443 1443 1443 1443 1443 1443 1443 1443 1443 1444 1445 1446 1446 1446 1447 1448 1449 1448 1447 1442 1442 1443 1445 1445
1427 1428 1430 1432 1434 1435 1437 1438 1439 1440 1440 1441 1441 1441 1440 1439 1439 1439 1438 1437 1437 1437 1437 1437 1437 1437 1437 1437 1437 1438 1439 1440 1440 1440 1441 1442 1443 1442 1441 1436 1436 1437 1437
1424 1425 1427 1429 1430 1432 1433 1434 1434 1435 1436 1436 1436 1436 1435 1434 1433 1433 1432 1431 1431 1430 1430 1430 1430 1430 1430 1430 1430 1431 1432 1433 1434 1434 1434 1435 1436 1435 1435 1433 1430 1429 1430
1421 1422 1423 1425 1426 1428 1429 1430 1430 1430 1431 1431 1431 1431 1430 1429 1428 1427 1426 1425 1424 1424 1424 1424 1423 1423 1423 1423 1423 1423 1424 1425 1426 1427 1427 1428 1429 1430 1429 1429 1426 1424 1423
1419 1420 1421 1421 1422 1424 1425 1425 1426 1426 1426 1427 1427 1426 1426 1425 1423 1422 1421 1420 1419 1418 1417 1417 1416 1416 1416 1416 1416 1416 1416 1417 1418 1419 1419 1420 1421 1422 1423 1423 1423 1420 1418
1419 1420 1420 1420 1420 1421 1421 1422 1422 1422 1422 1422 1422 1421 1421 1419 1418 1417 1416 1414 1413 1412 1411 1411 1410 1409 1408 1408 1408 1408 1408 1409 1410 1411 1411 1412 1413 1415 1416 1417 1417 1417 1413
1418 1418 1417 1417 1417 1417 1418 1419 1419 1418 1418 1418 1418 1417 1416 1414 1413 1411 1410 1409 1407 1406 1405 1404 1403 1402 1401 1401 1401 1401 1401 1402 1402 1403 1404 1405 1406 1407 1408 1409 1410 1410 1409
1417 1417 1416 1415 1414 1415 1415 1416 1415 1415 1415 1414 1413 1412 1411 1410 1408 1407 1405 1403 1402 1400 1399 1398 1397 1395 1394 1394 1394 1394 1394 1394 1394 1396 1397 1397 1399 1400 1401 1402 1402 1403 1403
1417 1416 1415 1414 1413 1413 1413 1413 1412 1412 1411 1410 1409 1408 1406 1405 1403 1402 1400 1398 1396 1394 1393 1392 1391 1389 1388 1388 1387 1387 1387 1387 1387 1388 1390 1390 1392 1392 1394 1395 1395 1396 1396
1416 1415 1414 1413 1412 1411 1410 1410 1409 1409 1407 1406 1405 1403 1402 1400 1398 1396 1394 1392 1390 1388 1387 1386 1385 1383 1383 1382 1381 1381 1381 1381 1381 1382 1383 1384 1385 1385 1386 1387 1388 1389 1389
1415 1413 1412 1411 1410 1409 1408 1407 1406 1405 1404 1403 1401 1399 1397 1395 1393 1391 1389 1387 1385 1383 1381 1380 1379 1378 1377 1376 1375 1375 1375 1375 1376 1376 1376 1377 1378 1379 1380 1381 1382 1382 1383
1413 1412 1411 1410 1408 1407 1405 1405 1403 1402 1401 1399 1397 1395 1393 1391 1389 1387 1384 1382 1380 1378 1377 1375 1374 1373 1372 1371 1371 1370 1370 1370 1370 1370 1371 1371 1372 1373 1374 1375 1375 1376 1377
1412 1410 1409 1407 1406 1405 1403 1402 1400 1399 1397 1395 1393 1391 1389 1386 1384 1382 1379 1377 1375 1373 1372 1370 1369 1368 1367 1367 1367 1366 1366 1366 1366 1365 1365 1366 1366 1367 1368 1369 1369 1371 1371
1410 1408 1407 1405 1404 1402 1401 1399 1397 1396 1394 1392 1390 1387 1385 1383 1380 1378 1375 1373 1371 1369 1367 1366 1365 1363 1363 1362 1362 1362 1362 1361 1361 1361 1361 1361 1362 1362 1362 1363 1364 1365 1367
1407 1406 1404 1403 1401 1400 1398 1396 1394 1392 1390 1388 1386 1384 1382 1379 1377 1374 1371 1369 1367 1365 1364 1362 1361 1360 1359 1359 1358 1358 1358 1358 1358 1358 1358 1358 1357 1358 1358 1359 1359 1360 1361
1406 1404 1403 1401 1399 1397 1395 1393 1391 1389 1387 1385 1383 1381 1379 1376 1373 1370 1368 1366 1363 1362 1360 1359 1357 1356 1355 1355 1355 1355 1355 1355 1354 1355 1355 1355 1354 1354 1355 1355 1355 1356 1357
1403 1402 1400 1399 1397 1395 1393 1391 1388 1386 1384 1382 1380 1378 1376 1373 1370 1368 1365 1363 1361 1359 1357 1356 1354 1353 1352 1352 1352 1352 1352 1352 1351 1351 1351 1351 1351 1351 1351 1351 1352 1352 1353
1401 1400 1398 1397 1395 1393 1391 1388 1386 1384 1382 1380 1378 1375 1373 1371 1368 1366 1363 1361 1358 1356 1354 1352 1351 1350 1350 1349 1349 1350 1350 1349 1349 1348 1348 1348 1348 1348 1348 1348 1348 1349 1350
1399 1398 1396 1394 1393 1391 1389 1386 1384 1382 1380 1377 1375 1373 1370 1368 1366 1363 1361 1359 1356 1353 1351 1350 1348 1348 1347 1347 1346 1347 1347 1347 1347 1346 1346 1346 1346 1345 1345 1345 1346 1346 1347
1398 1396 1394 1392 1390 1389 1386 1383 1381 1379 1377 1374 1372 1370 1367 1365 1363 1361 1358 1356 1354 1351 1349 1347 1346 1345 1345 1344 1344 1344 1344 1345 1345 1344 1344 1344 1344 1343 1343 1343 1344 1344 1345
1395 1394 1392 1389 1387 1386 1384 1381 1379 1376 1374 1371 1369 1367 1365 1362 1360 1358 1356 1354 1351 1349 1347 1346 1344 1343 1342 1342 1341 1341 1341 1342 1342 1342 1342 1342 1342 1342 1342 1342 1342 1342 1343
1393 1392 1390 1387 1385 1383 1380 1378 1376 1374 1371 1369 1367 1365 1362 1360 1358 1356 1354 1352 1350 1349 1347 1345 1344 1342 1340 1340 1340 1339 1339 1339 1339 1339 1339 1340 1340 1339 1339 1340 1340 1341 1342
1390 1388 1387 1384 1382 1380 1377 1375 1373 1371 1368 1366 1364 1362 1360 1358 1356 1353 1351 1350 1348 1347 1345 1344 1342 1340 1340 1338 1338 1338 1337 1337 1338 1338 1337 1338 1338 1338 1338 1338 1339 1340 1341